Location: Katwijk
(52.2000°N, 4.4170°E)
Time: 03:33:58
(UTC+02:00)

ISS - Visible Passes

Search period start: 29 March 2017 00:00
Search period end: 08 April 2017 00:00
Orbit: 399 x 409 km, 51.6° (Epoch: 29 March)

Date Brightness Start Highest point End Pass type
(mag) Time Alt. Az. Time Alt. Az. Time Alt. Az.
29 Mar -2.9 21:41:58 10° SSW 21:44:51 29° SSE 21:45:05 29° SE visible
30 Mar -2.3 20:50:10 10° SSW 20:52:39 20° SE 20:55:09 10° E visible
30 Mar -3.2 22:25:28 10° WSW 22:28:00 46° SW 22:28:00 46° SW visible
31 Mar -3.5 21:33:14 10° SW 21:36:23 46° SSE 21:38:02 23° E visible
31 Mar -1.6 23:09:27 10° W 23:10:43 21° W 23:10:43 21° W visible
01 Apr -4.0 22:17:04 10° WSW 22:20:20 78° S 22:20:37 70° ESE visible
02 Apr -3.8 21:24:41 10° WSW 21:27:56 66° SSE 21:30:25 16° E visible
02 Apr -2.3 23:01:05 10° W 23:03:04 34° W 23:03:04 34° W visible
03 Apr -3.9 22:08:39 10° W 22:11:56 83° S 22:12:46 47° E visible
03 Apr -0.8 23:45:07 10° W 23:45:25 12° W 23:45:25 12° W visible
04 Apr -3.9 21:16:14 10° W 21:19:29 80° S 21:22:25 12° E visible
04 Apr -2.9 22:52:39 10° W 22:55:04 43° WSW 22:55:04 43° WSW visible
05 Apr -3.9 22:00:12 10° W 22:03:29 76° S 22:04:41 36° ESE visible
05 Apr -1.0 23:36:46 10° W 23:37:19 14° W 23:37:19 14° W visible
06 Apr -3.8 21:07:44 10° W 21:11:01 83° S 21:14:15 10° E visible
06 Apr -3.0 22:44:12 10° W 22:46:54 40° SW 22:46:54 40° SW visible
07 Apr -3.6 21:51:42 10° W 21:54:56 58° SSW 21:56:28 27° SE visible
07 Apr -1.0 23:28:35 10° W 23:29:06 12° WSW 23:29:06 12° WSW visible
